• MPC Preparation (Info)

  • MPEC 2015-K89 : 2015 KL120

    The following Minor Planet Electronic Circular may be linked-to from your own Web pages, but must not otherwise be redistributed electronically.

    A form allowing access to any MPEC is at the bottom of this page.


    Read MPEC 2015-K88 Read MPEC 2015-K90


    M.P.E.C. 2015-K89                                Issued 2015 May 25, 21:20 UT
    
         The Minor Planet Electronic Circulars contain information on unusual
             minor planets and routine data on comets.  They are published
       on behalf of Commission 20 of the International Astronomical Union by the
              Minor Planet Center, Smithsonian Astrophysical Observatory,
                              Cambridge, MA 02138, U.S.A.
    
                 Prepared using the Tamkin Foundation Computer Network
    
                                  MPC@CFA.HARVARD.EDU
                URL https://www.minorplanetcenter.net/    ISSN 1523-6714
    
                                      2015 KL120
    
    Observations:
         K15KC0L* C2015 05 21.39519 15 33 39.584-03 35 46.18         21.8 wLEK089F51
         K15KC0L  C2015 05 21.40801 15 33 40.056-03 35 19.71         21.6 wLEK089F51
         K15KC0L  C2015 05 21.42081 15 33 40.500-03 34 53.18         21.9 wLEK089F51
         K15KC0L _C2015 05 22.40459015 34 30.998-03 00 42.74         21.1 RtEK089568
         K15KC0L _C2015 05 22.40588315 34 31.047-03 00 40.06         21.2 RtEK089568
         K15KC0L _C2015 05 22.40718715 34 31.094-03 00 37.32         21.0 RtEK089568
         K15KC0L _C2015 05 22.40847715 34 31.144-03 00 34.59         21.1 RtEK089568
         K15KC0L  C2015 05 22.43832 15 34 32.316-02 59 32.44         21.5 wLEK089F51
         K15KC0L  C2015 05 22.45109 15 34 32.814-02 59 05.68         21.7 wLEK089F51
         K15KC0L  C2015 05 22.46382 15 34 33.307-02 58 38.78         21.4 wLEK089F51
         K15KC0L  C2015 05 22.47655 15 34 33.816-02 58 12.08         21.7 wLEK089F51
         K15KC0L  C2015 05 25.32774 15 37 11.62 -01 17 29.0          20.5 RoEK089926
         K15KC0L  C2015 05 25.34417 15 37 12.39 -01 16 53.8          21.7 RoEK089926
    
    Observer details:
    568 Mauna Kea.  Observers R. J. Wainscoat, P. Forshay.  Measurers M. Micheli,
        R. J. Wainscoat.  3.6-m Canada-France-Hawaii Telescope + CCD.
    926 Tenagra II Observatory.  Observers M. Schwartz, P. R. Holvorcem.  Measurer
        M. Schwartz.  0.81-m f/7 Ritchey-Chretien + CCD.
    F51 Pan-STARRS 1, Haleakala.  Observers B. Gibson, T. Goggia, N. Primak,
        A. Schultz, M. Willman.  Measurers K. Chambers, S. Chastel, L. Denneau,
        H. Flewelling, M. Huber, E. Lilly, E. Magnier, R. Wainscoat, C. Waters,
        R. Weryk.  1.8-m Ritchey-Chretien + CCD.
    
    Orbital elements:
    2015 KL120                                               Earth MOID = 0.1825 AU
    Epoch 2015 June 27.0 TT = JDT 2457200.5                 MPC
    M 357.11173              (2000.0)            P               Q
    n   0.31293280     Peri.   67.40178     +0.16965941     +0.98336309
    a   2.1486647      Node   212.57705     -0.94266585     +0.14272604
    e   0.4618674      Incl.    6.92355     -0.28739654     +0.11236685
    P   3.15           H   23.2           G   0.15           U   7
    Residuals in seconds of arc
    150521 F51  0.1+  0.1+    150522 568  0.1-  0.2-    150522 F51  0.2+  0.1+
    150521 F51  0.2+  0.0     150522 568  0.1-  0.1-    150525 926  0.1-  0.0
    150521 F51  0.2-  0.0     150522 F51  0.1-  0.0     150525 926  0.1+  0.0
    150522 568  0.1-  0.2-    150522 F51  0.0   0.1-
    150522 568  0.1-  0.2-    150522 F51  0.0   0.1+
    
    Ephemeris:
    2015 KL120               a,e,i = 2.15, 0.46, 7                   q = 1.1563
    Date    TT    R. A. (2000) Decl.     Delta      r     Elong.  Phase     V
    2015 04 25    15 16 15.8 -15 20 24   0.3878  1.3818   163.3    12.1    22.6
    ...
    2015 05 10    15 25 34.0 -09 36 26   0.2994  1.3060   170.8     7.1    21.7
    ...
    2015 05 18    15 30 58.6 -05 30 24   0.2649  1.2701   166.0    11.1    21.5
    ...
    2015 05 24    15 35 56.6 -02 04 25   0.2445  1.2456   160.5    15.8    21.5
    2015 05 25    15 36 53.1 -01 28 53   0.2415  1.2418   159.5    16.6    21.5
    2015 05 26    15 37 52.0 -00 53 07   0.2386  1.2380   158.5    17.4    21.5
    ...
    2015 06 01    15 44 39.9 +02 44 05   0.2238  1.2169   152.6    22.6    21.5
    ...
    2015 06 09    15 56 35.1 +07 27 34   0.2096  1.1931   145.2    29.0    21.5
    ...
    2015 06 24    16 29 26.7 +14 40 52   0.1972  1.1639   134.8    38.3    21.5
    
    A. U. Tomatic                (C) Copyright 2015 MPC           M.P.E.C. 2015-K89
    

    Read MPEC 2015-K88 Read MPEC 2015-K90


    MPEC number:

    Enter an MPEC number in one of the following forms:

    • 1997-B01 (the full form)
    • J97B01 (the packed version of the full form)
    • B01 (the abbreviated form)